Home > Weather > Hollywood > Past weeks

Flag for USA Past Weather in Hollywood, California, USA — Yesterday and Last 2 Weeks

Now
79 °F

Sunny.


Feels Like: 79 °F
Forecast: 67 / 85 °F
Wind: 5 mph from Southeast

Location: Bob Hope Airport

Current Time: Jul 25, 2016 at 9:15:29 AM

Latest Report: Jul 25, 2016 at 8:53 AM


Visibility: 10 mi

Pressure: 29.94 "Hg

Humidity: 42%

Dew Point: 54 °F

Location of HollywoodLocation

Past Weather in Hollywood — Graph

°F

Hollywood Temperature Yesterday

Maximum temperature yesterday: 93 °F (at 4:53 PM)
Minimum temperature yesterday: 67 °F (at 5:53 AM)
Average temperature yesterday: 81 °F

High & Low Weather Summary for the Past Weeks

 TemperatureHumidityPressure
High101 °F (Jul 22, 2:53 PM)93% (Jul 14, 6:53 AM)30.00 "Hg (Jul 14, 6:53 AM)
Low61 °F (Jul 17, 5:53 AM)11% (Jul 21, 2:53 PM)29.75 "Hg (Jul 23, 1:53 PM)
Average77 °F54%29.88 "Hg
* Reported Jul 10 8:01 AM — Jul 25 7:53 AM, Hollywood, Weather by CustomWeather, © 2016

Note: Actual official high and low records may vary slightly from our data, if they occured in-between our weather recording intervals... More about our weather records

Advertising

Hollywood Weather History for the Previous 24 Hours

Scroll right to see more
 ConditionsComfort  
Time TempWeatherWind HumidityBarometerVisibility
7:53 AM
Mon, Jul 25
75 °FSunny.No wind52%29.93 "Hg10 mi
6:53 AM70 °FClear.No wind64%29.90 "Hg8 mi
5:53 AM69 °FClear.3 mph66%29.89 "Hg10 mi
4:53 AM70 °FClear.No wind76%29.88 "Hg10 mi
3:53 AM70 °FClear.No wind84%29.88 "Hg10 mi
2:53 AM71 °FClear.6 mph84%29.89 "Hg10 mi
1:53 AM71 °FClear.5 mph84%29.88 "Hg10 mi
12:53 AM72 °FClear.7 mph81%29.88 "Hg10 mi
11:53 PM
Sun, Jul 24
75 °FClear.10 mph74%29.88 "Hg10 mi
10:53 PM78 °FClear.8 mph66%29.88 "Hg10 mi
9:53 PM79 °FClear.6 mph62%29.87 "Hg10 mi
8:53 PM80 °FSunny.7 mph58%29.85 "Hg10 mi
7:53 PM85 °FSunny.9 mph45%29.84 "Hg10 mi
6:53 PM88 °FSunny.9 mph40%29.83 "Hg10 mi
5:53 PM93 °FSunny.8 mph18%29.83 "Hg10 mi
4:53 PM93 °FSunny.9 mph21%29.84 "Hg10 mi
3:53 PM92 °FSunny.10 mph26%29.85 "Hg10 mi
2:53 PM92 °FSunny.8 mph28%29.86 "Hg10 mi
1:53 PM92 °FSunny.13 mph28%29.88 "Hg10 mi
12:53 PM89 °FSunny.10 mph36%29.89 "Hg10 mi
11:53 AM87 °FSunny.9 mph43%29.89 "Hg10 mi
10:53 AM85 °FSunny.12 mph40%29.88 "Hg10 mi
9:53 AM84 °FSunny.3 mph32%29.87 "Hg10 mi
Weather by CustomWeather, © 2016

See weather overviewHow to use our weather pages